When you browse on this site, cookies collect data to enhance your experience and personalize the content and advertising you see.
Visit our Privacy Policy to learn more. By continuing to use the site, you agree to this use of cookies and data.
  • In United Kingdom
  • List of Countries
  • For 7 days
  • Water Temperature
  • Satellite Maps
  • Weather Map
  • Weather Widgets
  • user-avatar
    Login

    Hourly Weather Les Herbiers

    Today, 18 February, Monday

    Time Temperature Precipitation Wind Pressure Humidity
    00:00 +7°C° 0 mm 3 mps 751 mmHg 90%
    01:00 +5°C° 0 mm 4 mps 751 mmHg 90%
    02:00 +5°C° 0 mm 4 mps 751 mmHg 90%
    03:00 +4°C° 0 mm 4 mps 750 mmHg 90%
    04:00 +4°C° 0 mm 4 mps 750 mmHg 91%
    05:00 +3°C° 0 mm 4 mps 750 mmHg 91%
    06:00 +3°C° 0 mm 4 mps 750 mmHg 92%
    07:00 +4°C° 0 mm 4 mps 750 mmHg 89%
    08:00 +5°C° 0 mm 5 mps 750 mmHg 87%
    09:00 +6°C° 0 mm 5 mps 750 mmHg 84%
    10:00 +7°C° 0 mm 5 mps 750 mmHg 81%
    11:00 +9°C° 0 mm 5 mps 750 mmHg 78%
    12:00 +10°C° 0 mm 5 mps 750 mmHg 74%
    13:00 +11°C° 0 mm 4 mps 750 mmHg 75%
    14:00 +12°C° 0 mm 4 mps 750 mmHg 75%
    15:00 +12°C° 0 mm 4 mps 750 mmHg 76%
    16:00 +11°C° 0 mm 3 mps 750 mmHg 82%
    17:00 +10°C° 0 mm 3 mps 751 mmHg 88%
    18:00 +8°C° 0 mm 2 mps 751 mmHg 94%
    19:00 +8°C° 0.1 mm 2 mps 751 mmHg 94%
    20:00 +8°C° 0.1 mm 2 mps 751 mmHg 95%
    21:00 +7°C° 0.1 mm 2 mps 752 mmHg 95%
    22:00 +7°C° 0.2 mm 2 mps 752 mmHg 96%
    23:00 +7°C° 0.2 mm 2 mps 752 mmHg 96%

    Tomorrow, 19 February, Tuesday

    Time Temperature Precipitation Wind Pressure Humidity
    00:00 +7°C° 0.2 mm 2 mps 753 mmHg 96%
    01:00 +7°C° 0 mm 1 mps 753 mmHg 96%
    02:00 +7°C° 0 mm 1 mps 753 mmHg 96%
    03:00 +6°C° 0 mm 1 mps 753 mmHg 97%
    04:00 +6°C° 0 mm 1 mps 753 mmHg 97%
    05:00 +5°C° 0 mm 1 mps 753 mmHg 97%
    06:00 +4°C° 0 mm 0 mps 753 mmHg 97%
    07:00 +5°C° 0 mm 0 mps 753 mmHg 95%
    08:00 +6°C° 0 mm 0 mps 754 mmHg 93%
    09:00 +8°C° 0 mm 1 mps 754 mmHg 91%
    10:00 +9°C° 0 mm 1 mps 754 mmHg 85%
    11:00 +11°C° 0 mm 1 mps 754 mmHg 78%
    12:00 +12°C° 0 mm 2 mps 754 mmHg 72%
    13:00 +12°C° 0 mm 2 mps 754 mmHg 70%
    14:00 +12°C° 0 mm 2 mps 754 mmHg 68%
    15:00 +13°C° 0 mm 2 mps 753 mmHg 66%
    16:00 +10°C° 0 mm 2 mps 753 mmHg 74%
    17:00 +8°C° 0 mm 2 mps 753 mmHg 81%
    18:00 +7°C° 0 mm 2 mps 753 mmHg 89%
    19:00 +7°C° 0 mm 1 mps 753 mmHg 90%
    20:00 +6°C° 0 mm 1 mps 753 mmHg 91%
    21:00 +6°C° 0 mm 1 mps 753 mmHg 92%
    22:00 +6°C° 0 mm 1 mps 753 mmHg 92%
    23:00 +6°C° 0 mm 1 mps 753 mmHg 91%

    Day after tomorrow, 20 February, Wednesday

    Time Temperature Precipitation Wind Pressure Humidity
    00:00 +6°C° 0 mm 1 mps 753 mmHg 91%
    01:00 +5°C° 0 mm 1 mps 753 mmHg 91%
    02:00 +4°C° 0 mm 2 mps 753 mmHg 91%
    03:00 +4°C° 0 mm 2 mps 753 mmHg 91%
    04:00 +4°C° 0 mm 2 mps 753 mmHg 92%
    05:00 +4°C° 0 mm 2 mps 753 mmHg 93%
    06:00 +4°C° 0 mm 2 mps 753 mmHg 94%
    07:00 +5°C° 0 mm 2 mps 753 mmHg 93%
    08:00 +5°C° 0 mm 3 mps 754 mmHg 91%
    09:00 +7°C° 0 mm 3 mps 754 mmHg 90%
    10:00 +9°C° 0 mm 3 mps 754 mmHg 86%
    11:00 +10°C° 0 mm 3 mps 755 mmHg 83%
    12:00 +12°C° 0 mm 4 mps 755 mmHg 79%
    13:00 +12°C° 0 mm 3 mps 755 mmHg 78%
    14:00 +12°C° 0 mm 3 mps 755 mmHg 77%
    15:00 +12°C° 0 mm 3 mps 755 mmHg 76%
    16:00 +11°C° 0 mm 3 mps 755 mmHg 81%
    17:00 +9°C° 0 mm 2 mps 755 mmHg 86%
    18:00 +8°C° 0 mm 2 mps 755 mmHg 91%
    19:00 +8°C° 0 mm 1 mps 755 mmHg 92%
    20:00 +8°C° 0 mm 1 mps 755 mmHg 92%
    21:00 +7°C° 0 mm 1 mps 756 mmHg 92%
    22:00 +7°C° 0 mm 1 mps 756 mmHg 91%
    23:00 +7°C° 0 mm 1 mps 756 mmHg 90%

    21 February, Thursday

    Time Temperature Precipitation Wind Pressure Humidity
    00:00 +6°C° 0 mm 1 mps 756 mmHg 89%
    01:00 +6°C° 0 mm 1 mps 756 mmHg 88%
    02:00 +6°C° 0 mm 1 mps 756 mmHg 87%
    03:00 +6°C° 0 mm 1 mps 756 mmHg 86%
    04:00 +6°C° 0 mm 1 mps 756 mmHg 86%
    05:00 +6°C° 0 mm 1 mps 757 mmHg 86%
    06:00 +5°C° 0 mm 2 mps 757 mmHg 86%
    07:00 +6°C° 0 mm 2 mps 757 mmHg 85%
    08:00 +7°C° 0 mm 2 mps 757 mmHg 84%
    09:00 +8°C° 0 mm 2 mps 758 mmHg 82%
    10:00 +10°C° 0 mm 3 mps 758 mmHg 77%
    11:00 +12°C° 0 mm 3 mps 758 mmHg 72%
    12:00 +14°C° 0 mm 3 mps 758 mmHg 67%
    13:00 +15°C° 0 mm 2 mps 758 mmHg 66%
    14:00 +16°C° 0 mm 2 mps 758 mmHg 65%
    15:00 +16°C° 0 mm 2 mps 758 mmHg 63%
    16:00 +14°C° 0 mm 2 mps 758 mmHg 70%
    17:00 +13°C° 0 mm 2 mps 758 mmHg 77%
    18:00 +10°C° 0 mm 2 mps 758 mmHg 83%
    19:00 +9°C° 0 mm 2 mps 758 mmHg 84%
    20:00 +9°C° 0 mm 2 mps 759 mmHg 86%
    21:00 +8°C° 0 mm 2 mps 759 mmHg 87%
    22:00 +8°C° 0 mm 3 mps 759 mmHg 86%
    23:00 +8°C° 0 mm 3 mps 759 mmHg 86%

    22 February, Friday

    Time Temperature Precipitation Wind Pressure Humidity
    00:00 +8°C° 0 mm 3 mps 759 mmHg 86%
    01:00 +7°C° 0 mm 3 mps 759 mmHg 85%
    02:00 +7°C° 0 mm 3 mps 759 mmHg 85%
    03:00 +7°C° 0 mm 3 mps 759 mmHg 85%
    04:00 +7°C° 0 mm 3 mps 759 mmHg 85%
    05:00 +7°C° 0 mm 3 mps 760 mmHg 85%
    06:00 +5°C° 0 mm 3 mps 760 mmHg 85%
    07:00 +8°C° 0 mm 3 mps 760 mmHg 83%
    08:00 +9°C° 0 mm 3 mps 760 mmHg 80%
    09:00 +10°C° 0 mm 3 mps 761 mmHg 78%
    10:00 +12°C° 0 mm 4 mps 761 mmHg 74%
    11:00 +13°C° 0 mm 4 mps 761 mmHg 71%
    12:00 +15°C° 0 mm 4 mps 761 mmHg 67%
    13:00 +15°C° 0 mm 4 mps 760 mmHg 67%
    14:00 +17°C° 0 mm 4 mps 760 mmHg 66%
    15:00 +17°C° 0 mm 4 mps 760 mmHg 66%
    16:00 +14°C° 0 mm 4 mps 760 mmHg 72%
    17:00 +12°C° 0 mm 4 mps 760 mmHg 78%
    18:00 +11°C° 0 mm 3 mps 760 mmHg 84%
    19:00 +10°C° 0 mm 4 mps 760 mmHg 83%
    20:00 +10°C° 0 mm 4 mps 760 mmHg 82%
    21:00 +8°C° 0 mm 4 mps 760 mmHg 81%
    22:00 +8°C° 0 mm 5 mps 760 mmHg 83%
    23:00 +8°C° 0 mm 5 mps 760 mmHg 84%

    23 February, Saturday

    Time Temperature Precipitation Wind Pressure Humidity
    00:00 +8°C° 0 mm 5 mps 760 mmHg 86%
    01:00 +7°C° 0 mm 4 mps 760 mmHg 87%
    02:00 +7°C° 0 mm 4 mps 760 mmHg 89%
    03:00 +7°C° 0 mm 3 mps 760 mmHg 90%
    04:00 +7°C° 0 mm 3 mps 760 mmHg 88%
    05:00 +7°C° 0 mm 3 mps 760 mmHg 85%
    06:00 +7°C° 0 mm 3 mps 760 mmHg 82%
    07:00 +7°C° 0 mm 4 mps 761 mmHg 78%
    08:00 +8°C° 0 mm 4 mps 761 mmHg 75%
    09:00 +9°C° 0 mm 5 mps 761 mmHg 71%
    10:00 +12°C° 0 mm 5 mps 761 mmHg 69%
    11:00 +13°C° 0 mm 5 mps 761 mmHg 66%
    12:00 +15°C° 0 mm 5 mps 761 mmHg 64%
    13:00 +15°C° 0 mm 5 mps 761 mmHg 64%
    14:00 +16°C° 0 mm 5 mps 761 mmHg 65%
    15:00 +17°C° 0 mm 4 mps 761 mmHg 66%
    16:00 +14°C° 0 mm 4 mps 761 mmHg 72%
    17:00 +13°C° 0 mm 3 mps 761 mmHg 79%
    18:00 +12°C° 0 mm 2 mps 761 mmHg 85%
    19:00 +12°C° 0 mm 2 mps 761 mmHg 85%
    20:00 +10°C° 0 mm 2 mps 761 mmHg 85%
    21:00 +9°C° 0 mm 2 mps 761 mmHg 86%
    22:00 +9°C° 0 mm 2 mps 761 mmHg 85%
    23:00 +9°C° 0 mm 2 mps 761 mmHg 84%
    Show more